Regional Weather Roundup
Issued by NWS

Home | Current Version | Previous Version | Graphics & Text | Print | Product List | Glossary On
Versions: 1 2 3 4 5 6 7 8 9 10 11 12 13 14 15 16 17 18 19 20 21 22 23 24 25 26 27 28 29 30 31 32 33 34 35 36 37 38 39 40 41 42 43 44 45 46 47 48 49 50
176
ASUS43 KLOT 282303
RWRIL

ILLINOIS REGIONAL WEATHER ROUNDUP
NATIONAL WEATHER SERVICE CHICAGO/ROMEOVILLE IL
600 PM CDT FRI APR 28 2017

NOTE: "FAIR" INDICATES FEW OR NO CLOUDS BELOW 12,000 FEET WITH NO
SIGNIFICANT WEATHER AND/OR OBSTRUCTIONS TO VISIBILITY.

* THESE STATIONS ARE NOT UNDER NWS QUALITY CONTROL. THEY ALSO MAY NOT
  REPORT WEATHER SUCH AS PRECIPITATION OR FOG.

ILZ001-002-007-009-015-016-024-290000-
NORTHWEST ILLINOIS

CITY           SKY/WX    TMP DP  RH WIND       PRES   REMARKS
MOLINE         CLOUDY    50  46  86 NE9       29.84R
STERLING*      CLOUDY    51  50  96 N7        29.87R FOG
SAVANNA*       DRIZZLE   47  45  95 NE8       29.88R
$$

ILZ003-004-008-010-011-017-018-290000-
NORTH CENTRAL ILLINOIS

CITY           SKY/WX    TMP DP  RH WIND       PRES   REMARKS
ROCKFORD       CLOUDY    51  47  86 N8        29.91R
FREEPORT*      DRIZZLE   46  45  95 N6        29.90R
ROCHELLE*      CLOUDY    54  50  89 NE7       29.87R
DE KALB*       CLOUDY    56  49  77 E3        29.87R
PERU*          CLOUDY    58  51  78 E6        29.84S
$$

ILZ005-006-012>014-019>023-290000-
NORTHEAST ILLINOIS

CITY           SKY/WX    TMP DP  RH WIND       PRES   REMARKS
CHICAGO-OHARE  PTSUNNY   58  45  62 NE10      29.87R
CHICAGO-MIDWAY CLOUDY    57  46  66 E10       29.87S
AURORA         CLOUDY    60  50  69 SE12      29.86R
LANSING*       CLOUDY    56  49  77 NE7       29.87S
WAUKEGAN       CLOUDY    47  41  80 NE5       29.89R HAZE
DUPAGE AIRPORT CLOUDY    59  48  67 SE10      29.86R HAZE
WHEELING       CLOUDY    51  44  77 NE9       29.90R
MORRIS*        CLOUDY    60  51  72 SE5       29.84S
NORTHERLY ISL    N/A     48  43  82 N7          N/A
$$

LMZ740>746-290000-
SOUTHERN LAKE MICHIGAN

STATION/POSITION SKY/WX   TEMP    WIND        PRES    VSBY  WAVE
                          AIR SEA DIR/SP/G                  HT/PER
                          (F)     (DEG/KT/KT) (MB)    (MI)  (FT/S)
SOUTHERN BUOY              42 42   50/  8/ 10 1012.7          0
HARRISON CRIB              47      60/ 13/ 14   N/A
BURNHAM HARBOR             47      20/  7/  8   N/A
CALUMET HARBOR             49      20/  6/  8 1011.5R
BURNS HARBOR               48      40/  6/  8 1012.5R
MICHIGAN CITY              53     360/  6/  7   N/A
MICHIGAN CITY 6N           45 47                N/A           1/ 2
ST. JOSEPH                 48 48   20/ 10/ 12 1012.5R         1/ 2
$$

ILZ025>027-034>036-040-047-049-050-058-095>099-290000-
WEST-CENTRAL ILLINOIS

CITY           SKY/WX    TMP DP  RH WIND       PRES   REMARKS
QUINCY         CLOUDY    60  55  83 NE3       29.79R
GALESBURG*     CLOUDY    57  53  86 E3        29.82R
MACOMB*        CLOUDY    59  55  87 SE3       29.83R
JACKSONVILLE*  CLOUDY    57  54  89 SE9       29.80R
PITTSFIELD*    CLOUDY    58  55  91 SE8       29.79S
$$

ILZ028>032-037-038-041>044-048-051>054-059>061-290000-
CENTRAL ILLINOIS

CITY           SKY/WX    TMP DP  RH WIND       PRES   REMARKS
PONTIAC        CLOUDY    60  56  87 SE7       29.85S
BLOOMINGTON    CLOUDY    56  53  90 SE12      29.83F
DECATUR        CLOUDY    55  55 100 SE10      29.83S
PEORIA         CLOUDY    60  54  80 S6        29.82R
SPRINGFIELD    CLOUDY    59  55  87 SE15      29.80R
TAYLORVILLE    CLOUDY    55  55  97 E6        29.81F FOG
$$

ILZ033-039-045-046-055>057-062-063-290000-
EAST-CENTRAL ILLINOIS

CITY           SKY/WX    TMP DP  RH WIND       PRES   REMARKS
CHAMPAIGN      LGT RAIN  55  52  89 E9        29.84F FOG
RANTOUL*       CLOUDY    57  55  94 SE10      29.83F FOG
MATTOON        LGT RAIN  55  54  96 NE7       29.82S FOG
PARIS*         TSTM      55  54  98 NE5       29.86R
$$

ILZ079-100>102-290000-
SOUTHWEST ILLINOIS

CITY           SKY/WX    TMP DP  RH WIND       PRES   REMARKS
ALTON          CLOUDY    55  55 100 E6        29.80R
BELLEVILLE     CLOUDY    57  57 100 NE5       29.79R
CAHOKIA*       CLOUDY    58  55  90 E6        29.78F FOG
$$

ILZ064>066-069>071-074>076-080>082-084>086-088>090-092>094-290000-
SOUTH-CENTRAL ILLINOIS

CITY           SKY/WX    TMP DP  RH WIND       PRES   REMARKS
CARBONDALE     RAIN      66  66 100 N7        29.78R FOG
CAIRO*         CLOUDY    75  70  85 S7        29.78R
EFFINGHAM*     CLOUDY    57  57 100 NE3       29.82F
MARION         CLOUDY    70  70 100 S6        29.79R
MT. VERNON     LGT RAIN  60  59  96 NE6       29.80S
CENTRALIA*     LGT RAIN  58  58  98 NE6       29.80R
SALEM*         CLOUDY    58  56  92 E5        29.80S FOG
$$

ILZ067-068-072-073-078-083-087-091-290000-
SOUTHEAST ILLINOIS

CITY           SKY/WX    TMP DP  RH WIND       PRES   REMARKS
LAWRENCEVILLE  LGT RAIN  64  61  90 VRB3      29.79R
FLORA*         CLOUDY    58  57  96 NE7       29.80F
FAIRFIELD*     RAIN      62  61  98 NW7       29.80R
HARRISBURG*    CLOUDY    73  69  85 S10       29.79R
ROBINSON*      TSTM      56  56  99 N5        29.82R
CARMI*         CLOUDY    72  68  87 S14       29.79R
$$

ABBREVIATIONS USED IN REMARKS
   TC - TEMPERATURE IN CELSIUS
  WCI - WIND CHILL INDEX
   HX - HEAT INDEX
  VSB - VISIBILITY
$$





USA.gov is the U.S. government's official web portal to all federal, state and local government web resources and services.